Milwaukee, WI

9:25 AM CST on February 09, 2016 (GMT -0600)
Gen Mitchell International

Weather History for KMKE - October, 2012

Change the Weather History Date:

Tuesday, October 9, 2012

  Actual Average Record
Temperature  
Mean Temperature 53 °F 54 °F  
Max Temperature 64 °F 62 °F 82 °F (1949)
Min Temperature 42 °F 45 °F 28 °F (1876)
Degree Days  
Heating Degree Days 12 12  
Month to date heating degree days 115 93  
Since 1 July heating degree days 253 245  
Cooling Degree Days 0 0  
Month to date cooling degree days 0 3  
Year to date cooling degree days 1041 637  
Growing Degree Days 3 (Base 50)    
Moisture  
Dew Point 37 °F    
Average Humidity 63    
Maximum Humidity 89    
Minimum Humidity 37    
Precipitation  
Precipitation 0.13 in 0.09 in 1.77 in (1958)
Month to date precipitation 0.15 0.80  
Year to date precipitation 22.31 28.16  
Snow  
Snow 0.00 in 0.00 in T in (1993)
Month to date snowfall 0.0 0.0  
Since 1 July snowfall 0.0 0.0  
Since 1 September snowfall 0.0 0.0  
Snow Depth 0.00 in    
Sea Level Pressure  
Sea Level Pressure 29.85 in    
Wind  
Wind Speed 16 mph (WSW)    
Max Wind Speed 25 mph    
Max Gust Speed 33 mph    
Visibility 10 miles    
Events Rain    
T = Trace of Precipitation, MM = Missing Value Source: NWS Daily Summary

Daily Weather History Graph

Daily Weather History Graph

Search for Another Location

Airport or City:

Trip Planner

Search our weather history database for the weather conditions in past years. The results will help you decide how hot, cold, wet, or windy it might be!

Date:

Astronomy

Oct. 09, 2012 Rise Set
Actual Time 6:58 AM CDT 6:18 PM CDT
Civil Twilight 6:30 AM CDT 6:46 PM CDT
Nautical Twilight 5:57 AM CDT 7:19 PM CDT
Astronomical Twilight 5:24 AM CDT 7:52 PM CDT
Moon 12:26 AM CDT 2:53 PM CDT
Length of Visible Light 12h 16m
Length of Day
11h 19m
Last Quarter, 36% of the Moon is Illuminated
Oct 9
Last Quarter
Oct 15
New
Oct 21
First Quarter
Oct 29
Full
Nov 6
Last Quarter

Hourly Weather History & Observations

Time (CDT) Temp. Windchill Dew Point Humidity Pressure Visibility Wind Dir Wind Speed Gust Speed Precip Events Conditions
12:52 AM 52.0 °F - 30.0 °F 43% 29.92 in 10.0 mi SSW 18.4 mph 26.5 mph N/A   Overcast
1:52 AM 52.0 °F - 30.9 °F 45% 29.93 in 10.0 mi SW 16.1 mph 26.5 mph N/A   Partly Cloudy
2:52 AM 52.0 °F - 32.0 °F 47% 29.91 in 10.0 mi SW 20.7 mph 28.8 mph N/A   Overcast
3:52 AM 51.1 °F - 32.0 °F 48% 29.90 in 10.0 mi SW 20.7 mph 28.8 mph N/A   Clear
4:52 AM 51.1 °F - 32.0 °F 48% 29.89 in 10.0 mi SW 18.4 mph 24.2 mph N/A   Scattered Clouds
5:52 AM 50.0 °F - 33.8 °F 54% 29.88 in 10.0 mi SW 17.3 mph 23.0 mph N/A   Mostly Cloudy
6:52 AM 50.0 °F - 33.1 °F 52% 29.88 in 10.0 mi SW 15.0 mph 25.3 mph N/A   Mostly Cloudy
7:52 AM 50.0 °F - 34.0 °F 54% 29.88 in 10.0 mi SW 18.4 mph 26.5 mph N/A   Overcast
8:52 AM 51.1 °F - 35.1 °F 54% 29.87 in 10.0 mi SW 20.7 mph 26.5 mph N/A   Mostly Cloudy
9:52 AM 53.1 °F - 36.0 °F 52% 29.85 in 10.0 mi SW 19.6 mph 24.2 mph N/A   Mostly Cloudy
10:52 AM 55.9 °F - 37.0 °F 49% 29.85 in 10.0 mi SW 18.4 mph 25.3 mph N/A   Mostly Cloudy
11:52 AM 59.0 °F - 37.0 °F 44% 29.83 in 10.0 mi SSW 17.3 mph 25.3 mph N/A   Mostly Cloudy
12:52 PM 61.0 °F - 37.9 °F 42% 29.81 in 10.0 mi SW 18.4 mph 27.6 mph N/A   Mostly Cloudy
1:52 PM 63.0 °F - 39.0 °F 41% 29.78 in 10.0 mi SW 23.0 mph 27.6 mph N/A   Mostly Cloudy
2:52 PM 64.0 °F - 37.9 °F 38% 29.76 in 10.0 mi SSW 19.6 mph 28.8 mph N/A   Overcast
3:52 PM 63.0 °F - 37.9 °F 40% 29.78 in 10.0 mi WSW 21.9 mph 33.4 mph N/A   Mostly Cloudy
4:52 PM 62.1 °F - 37.9 °F 41% 29.77 in 10.0 mi West 16.1 mph 25.3 mph N/A   Overcast
5:52 PM 55.0 °F - 41.0 °F 59% 29.79 in 10.0 mi WNW 19.6 mph 28.8 mph N/A   Overcast
5:59 PM 53.6 °F - 41.0 °F 62% 29.80 in 10.0 mi WNW 18.4 mph 28.8 mph N/A   Overcast
6:52 PM 50.0 °F - 41.0 °F 71% 29.85 in 10.0 mi WNW 18.4 mph 28.8 mph N/A   Overcast
7:28 PM 46.4 °F 40.1 °F 39.2 °F 76% 29.86 in 8.0 mi WNW 15.0 mph 26.5 mph 0.00 in Rain Light Rain
7:52 PM 45.0 °F 37.9 °F 39.0 °F 80% 29.86 in 7.0 mi WNW 16.1 mph 24.2 mph 0.01 in Rain Light Rain
8:52 PM 42.8 °F 37.5 °F 37.4 °F 81% 29.87 in 5.0 mi West 9.2 mph 20.7 mph N/A Rain Rain
9:02 PM 42.8 °F 38.6 °F 37.4 °F 81% 29.87 in 8.0 mi West 6.9 mph 16.1 mph 0.01 in Rain Light Rain
9:48 PM 42.8 °F 38.6 °F 39.2 °F 87% 29.86 in 10.0 mi WSW 6.9 mph - 0.01 in Rain Light Rain
9:52 PM 43.0 °F 39.5 °F 39.0 °F 86% 29.88 in 10.0 mi WSW 5.8 mph - 0.01 in   Overcast
10:52 PM 43.0 °F 38.2 °F 39.9 °F 89% 29.88 in 10.0 mi WSW 8.1 mph - N/A   Overcast
11:52 PM 43.0 °F 39.5 °F 39.9 °F 89% 29.88 in 10.0 mi West 5.8 mph - N/A   Overcast